Location: Cargill Incorporated Elevator
(42.7294°N, 93.7333°W)
Time: 05:07:09
(UTC+00:00)

Cosmos 371 Rocket - Pass Details

Date: 19 January 2026
Orbit: 676 x 688 km, 74.0° (Epoch: 14 February)

Event Time Altitude Azimuth Distance (km) Brightness Sun altitude
Rises 12:09:13 0° 184° (S) 3,038 6.7 -16.5°
Reaches altitude 10° 12:11:34 10° 179° (S) 2,125 6.0 -16.1°
Maximum altitude 12:16:11 49° 105° (ESE) 879 4.3 -15.3°
Drops below altitude 10° 12:20:48 10° 31° (NNE) 2,134 6.0 -14.5°
Sets 12:23:10 0° 26° (NNE) 3,052 6.8 -14.0°
